Home > Weather > Kelowna > Past weeks

Flag for Canada Past Weather in Kelowna, British Columbia, Canada — Yesterday and Last 2 Weeks

Now
61 °F

Clear.


Feels Like: 61 °F
Forecast: 55 / 89 °F
Wind: 5 mph from South

Location: Kelowna Airport

Current Time: Jul 24, 2016 at 2:00:32 AM

Latest Report: Jul 24, 2016 at 1:00 AM


Visibility: 9 mi

Pressure: 30.12 "Hg

Humidity: 63%

Dew Point: 48 °F

Location of KelownaLocation

Past Weather in Kelowna — Graph

°F

Kelowna Temperature Yesterday

Maximum temperature yesterday: 79 °F (at 5:00 PM)
Minimum temperature yesterday: 57 °F (at 4:00 AM)
Average temperature yesterday: 69 °F

High & Low Weather Summary for the Past Weeks

 TemperatureHumidityPressure
High86 °F (Jul 21, 3:47 PM)100% (Jul 17, 5:00 AM)30.20 "Hg (Jul 17, 5:00 AM)
Low48 °F (Jul 14, 6:00 AM)15% (Jul 21, 5:00 PM)29.80 "Hg (Jul 18, 3:54 PM)
Average66 °F61%29.99 "Hg
* Reported Jul 9 12:00 AM — Jul 24 12:00 AM, Kelowna, Weather by CustomWeather, © 2016

Note: Actual official high and low records may vary slightly from our data, if they occured in-between our weather recording intervals... More about our weather records

Advertising

Kelowna Weather History for the Previous 24 Hours

Scroll right to see more
 ConditionsComfort  
Time TempWeatherWind HumidityBarometerVisibility
12:00 AM
Sun, Jul 24
66 °FClear.9 mph49%30.11 "Hg9 mi
11:00 PM
Sat, Jul 23
68 °FClear.9 mph46%30.11 "Hg9 mi
10:00 PM68 °FClear.8 mph49%30.10 "Hg9 mi
9:00 PM68 °FSunny.3 mph56%30.08 "Hg9 mi
8:00 PM72 °FSunny.8 mph50%30.06 "Hg9 mi
7:00 PM75 °FOvercast.14 mph41%30.06 "Hg9 mi
6:00 PM77 °FOvercast.13 mph39%30.06 "Hg9 mi
5:52 PM77 °FOvercast.12 mph36%30.06 "Hg9 mi
5:00 PM79 °FOvercast.6 mph30%30.07 "Hg9 mi
4:00 PM77 °FPartly sunny.3 mph34%30.09 "Hg9 mi
3:00 PM75 °FOvercast.6 mph36%30.09 "Hg9 mi
2:00 PM75 °FOvercast.3 mph36%30.10 "Hg9 mi
1:00 PM73 °FScattered clouds.No wind38%30.11 "Hg9 mi
12:00 PM73 °FOvercast.3 mph38%30.12 "Hg9 mi
11:00 AM72 °FSunny.8 mph41%30.13 "Hg9 mi
10:00 AM68 °FScattered clouds.6 mph46%30.15 "Hg9 mi
9:00 AM66 °FPartly sunny.5 mph46%30.15 "Hg9 mi
8:00 AM66 °FPartly sunny.8 mph49%30.14 "Hg9 mi
7:00 AM63 °FPartly sunny.2 mph56%30.14 "Hg9 mi
6:00 AM57 °FPassing clouds.2 mph67%30.12 "Hg9 mi
5:00 AM57 °FPassing clouds.5 mph67%30.12 "Hg9 mi
4:00 AM57 °FPassing clouds.5 mph67%30.12 "Hg9 mi
3:00 AM63 °FPassing clouds.6 mph56%30.13 "Hg9 mi
2:00 AM63 °FClear.13 mph52%30.12 "Hg9 mi
Weather by CustomWeather, © 2016

See weather overviewHow to use our weather pages